COSMOS 2251 DEB, 40223

Orbit data source: Space-Track

COSMOS 2251 DEB, 40223 is space debris in LEO originally from a launch on Wed, 16 Jun 1993 UTC launched from the Plesetsk Missile And Space Complex (PKMTR). The debris from Iridium 33, an American commercial communications satellite, has been tracked extensively since its accidental collision with the defunct Russian satellite Cosmos 2251 in 2009. This event, occurring at high speed in low Earth orbit (LEO), generated thousands of pieces of space debris, significantly increasing the risk of further collisions. The Iridium 33 debris cloud has impacted space traffic management and orbital debris mitigation strategies, making it a subject of ongoing study in space situational awareness.

Loading next visibility...
COSMOS 2251 DEB details
Identifier
40223, 1993-036BVC
Orbit
LEO
Last TLE update18 hours ago
Origin
Flag of CISKVR (CIS)
ManufacturerUnknown
MissionSpacecraft
Bus & MotorUnknown
MassUnknown
Launch date (UTC)
1993-06-16 (32 years ago)
Launch vehicleUnknown
Launch site
Plesetsk Missile And Space Complex (PKMTR)
Object type
Payload
Rocket body
Debris
Shape & HBRUnknown
Radar Cross SectionSmall (<0.1 m²)

Expand to show TLE details & history

TLE from 18 hours ago
0 COSMOS 2251 DEB
1 40223U 93036BVC 24360.92647421  .00040662  00000-0  59833-2 0  9990
2 40223  73.9508  74.1296 0032688 326.8274 149.0128 14.74840848541422
Epoch: 2024-12-25T22:14Z
Definitive object data (Epoch: 2024-12-25T22:14:07.371Z)
Latitude59.822°
Longitude156.21054°
Altitude675.176 km
Speed7.515 km/s
True Right ascension14h 58m 37s
True Declination59° 40' 14"
Sunlit
Object was in daylight at TLE epoch
Visualization TLE readout
Latitude-31.19733°
Longitude-165.8373°
Altitude665.673 km
Speed7.519 km/s
Apparent Right ascension20h 57m 16s
Apparent Declination-72° 11' 31"
Sunlit
Object is in daylight
Visualization observer readout
Local Sidereal Time15:57:01
Azimuth159.272° S
Elevation-33.398°
Doppler factor1
Orbital elements
Apogee altitude666.197 km
Perigee altitude620.294 km
Semi-major axis7,021.382 km
Eccentricity0.0032688
Inclination73.9508°
RAAN74.1296°
Arg. of periapsis326.8274°
True anomaly149.20498°
Mean anomaly149.0128°
Eccentric anomaly149.10896°
Mean motion3.68901 °/min
BSTAR0.0059833
Orbital period97.59 mins
Loading maneuver chart data...

COSMOS 2251 DEB Visibility forecast

Observer location: undefined°, undefined

Span
Click to sort rows by Start time (UTC) header in descending order
Start Az.
Max El. time (UTC)
Max El. Az.
Max El.
End time (UTC)
End Az.
7 mins2024-12-27 06:24:50.305Z209.999° SW2024-12-27 06:27:50.305Z312.179° NW42.973°2024-12-27 06:31:50.305Z13.884° NNE
4 mins2024-12-27 14:58:50.305Z38.365° NE2024-12-27 14:59:50.305Z52.79° ENE14.856°2024-12-27 15:02:50.305Z93.171° ESE
|